"startDT [UTC]","vpos","CH4 [ppm]","stdev(CH4) [ppm]","CO2 [ppm]","stdev(CO2) [ppm]","H2O [ppm]","stdev(H2O)","p_LGR [torr]","T_LGR [C]","mt1_LGR [us]","mt2_LGR [us]","T_ECpre [C]","T_EC1 [C]","T_EC2 [C]","p_inlet [hPa]","p_in [hPa]","p_out [hPa]","T_inlet [C]","RH_inlet [%]","dwpt_inlet [C]","T_vent [C]","RH_vent [%]","dwpt_vent [C]","flow_vent [l min-1]","flow_inlet [l min-1]","dwpt_sample [C]","T_room [C]"
2012-02-02 00:00:00,0.0,1.9060,0.0008,400.86,0.22,206.0,34.1,138.09,28.61,24.61,36.32,0.04,-272.74,-272.74,-49,548,-905,23.1,3.9,-21.4,23.1,4.1,-21.0,5.73,2.40,-24.8,26.8
2012-02-02 00:01:00,0.0,1.9060,0.0009,400.87,0.23,206.2,33.0,138.10,28.63,24.60,36.32,0.04,-272.74,-272.74,-50,548,-905,23.1,3.9,-21.4,23.1,4.1,-20.9,5.73,2.21,-24.9,26.7
2012-02-02 00:02:00,0.0,1.9057,0.0009,400.86,0.20,205.9,27.5,138.10,28.63,24.61,36.32,0.04,-272.74,-272.74,-50,548,-905,23.1,4.0,-21.3,23.1,4.1,-20.9,5.73,2.40,-25.0,26.4
2012-02-02 00:03:00,0.0,1.9055,0.0009,400.85,0.24,189.1,30.4,138.11,28.63,24.61,36.31,0.04,-272.74,-272.74,-50,549,-905,23.1,4.0,-21.2,23.0,4.1,-20.8,5.73,2.36,-25.1,26.4
2012-02-02 00:04:00,0.0,1.9061,0.0009,400.75,0.22,182.1,32.2,138.11,28.63,24.61,36.32,0.04,-272.74,-272.74,-49,549,-905,23.1,4.0,-21.2,23.0,4.1,-20.8,5.73,2.21,-25.1,26.2
2012-02-02 00:05:00,0.0,1.9059,0.0009,400.64,0.17,166.5,30.5,138.11,28.63,24.61,36.33,0.04,-272.74,-272.74,-50,549,-905,23.1,4.0,-21.2,23.0,4.2,-20.8,5.73,2.34,-25.2,26.1
2012-02-02 00:06:00,0.0,1.9060,0.0009,400.79,0.20,158.2,35.3,138.12,28.62,24.61,36.31,0.04,-272.74,-272.74,-50,549,-905,23.0,4.0,-21.1,23.0,4.2,-20.8,5.73,2.41,-25.3,26.1
2012-02-02 00:07:00,0.0,1.9057,0.0008,400.77,0.22,143.6,37.4,138.12,28.61,24.61,36.31,0.04,-272.74,-272.75,-50,549,-905,23.0,4.1,-21.1,22.9,4.2,-20.7,5.73,2.27,-25.3,26.0
2012-02-02 00:08:00,0.0,1.9052,0.0008,400.67,0.19,138.4,30.0,138.12,28.59,24.61,36.32,0.04,-272.74,-272.74,-50,549,-905,23.0,4.1,-21.1,22.9,4.2,-20.7,5.73,2.24,-25.4,25.8
2012-02-02 00:09:00,0.0,1.9049,0.0008,400.78,0.19,135.5,35.0,138.13,28.58,24.61,36.32,0.04,-272.73,-272.74,-50,549,-905,23.0,4.1,-21.0,22.9,4.2,-20.7,5.73,2.39,-25.4,25.9
2012-02-02 00:10:00,0.0,1.9051,0.0009,400.78,0.20,138.5,40.8,138.13,28.56,24.61,36.32,0.04,-272.74,-272.74,-50,549,-905,23.0,4.0,-21.2,22.9,4.2,-20.8,5.73,2.38,-25.5,25.8
2012-02-02 00:11:00,0.0,1.9049,0.0008,400.80,0.23,125.2,34.4,138.13,28.55,24.61,36.32,0.04,-272.74,-272.74,-51,549,-905,22.9,4.0,-21.3,22.9,4.1,-21.0,5.73,2.23,-25.5,25.7
2012-02-02 00:12:00,0.0,1.9039,0.0010,400.80,0.20,125.3,33.7,138.13,28.54,24.61,36.31,0.04,-272.74,-272.74,-50,549,-905,22.9,3.9,-21.5,22.9,4.1,-21.1,5.73,2.27,-25.6,25.7
2012-02-02 00:13:00,0.0,1.9036,0.0011,400.74,0.18,113.1,33.0,138.14,28.52,24.61,36.32,0.04,-272.74,-272.74,-50,548,-904,22.9,3.9,-21.5,22.8,4.1,-21.2,5.73,2.40,-25.6,25.7
2012-02-02 00:14:00,0.0,1.9032,0.0007,400.77,0.21,104.4,28.0,138.14,28.50,24.61,36.31,0.04,-272.74,-272.74,-50,549,-905,22.9,4.0,-21.4,22.8,4.1,-21.2,5.73,2.34,-25.6,25.7
2012-02-02 00:15:00,0.0,1.9026,0.0008,400.63,0.22,99.5,39.0,138.14,28.49,24.61,36.32,0.04,-272.74,-272.74,-51,548,-905,22.9,4.0,-21.4,22.8,4.1,-21.1,5.73,2.22,-25.7,25.6
2012-02-02 00:16:00,0.0,1.9023,0.0009,400.62,0.27,99.6,32.1,138.14,28.47,24.60,36.32,0.25,-270.86,-272.43,-48,544,-905,22.9,4.0,-21.3,22.8,4.1,-21.0,5.42,2.39,-29.9,25.5
2012-02-02 00:17:00,0.0,1.9014,0.0009,400.58,0.20,97.3,38.0,138.14,28.45,24.61,36.32,0.04,-272.74,-272.74,-50,548,-903,22.9,4.1,-21.2,22.8,4.2,-20.9,5.73,2.41,-25.8,25.5
2012-02-02 00:18:00,0.0,1.9009,0.0009,400.54,0.21,90.2,32.8,138.14,28.44,24.61,36.31,0.04,-272.74,-272.73,-50,548,-904,22.8,4.1,-21.0,22.7,4.3,-20.7,5.73,2.29,-25.7,26.1
2012-02-02 00:19:00,0.0,1.9020,0.0011,400.50,0.20,106.6,38.1,138.14,28.43,24.60,36.31,0.04,-272.74,-272.74,-51,548,-904,22.9,4.2,-20.7,22.8,4.4,-20.4,5.73,2.30,-25.6,26.5
2012-02-02 00:20:00,0.0,1.9027,0.0010,400.59,0.21,114.9,32.3,138.13,28.43,24.61,36.31,0.04,-272.74,-272.74,-50,548,-904,22.9,4.3,-20.5,22.8,4.4,-20.2,5.73,2.28,-25.5,26.8
2012-02-02 00:21:00,0.0,1.9039,0.0010,400.50,0.20,135.7,32.7,138.12,28.43,24.60,36.31,0.04,-272.74,-272.74,-51,548,-904,22.9,4.2,-20.6,22.8,4.4,-20.3,5.73,2.39,-25.4,27.1
2012-02-02 00:22:00,0.0,1.9045,0.0009,400.50,0.22,162.4,32.5,138.11,28.45,24.60,36.31,0.04,-272.74,-272.74,-50,548,-904,22.9,4.2,-20.7,22.9,4.4,-20.3,5.73,2.25,-25.3,27.3
2012-02-02 00:23:00,0.0,1.9049,0.0011,400.54,0.19,169.5,28.8,138.10,28.47,24.61,36.32,0.04,-272.74,-272.73,-50,548,-904,23.0,4.2,-20.7,22.9,4.3,-20.3,5.73,2.27,-25.1,27.4
2012-02-02 00:24:00,0.0,1.9048,0.0008,400.58,0.19,185.6,28.9,138.10,28.49,24.60,36.32,0.04,-272.74,-272.74,-51,548,-903,23.0,4.2,-20.7,23.0,4.4,-20.3,5.73,2.38,-25.0,27.6
2012-02-02 00:25:00,0.0,1.9047,0.0009,400.68,0.16,193.5,23.4,138.09,28.51,24.61,36.32,0.04,-272.74,-272.74,-51,550,-903,23.1,4.1,-20.8,23.0,4.3,-20.4,5.73,2.34,-24.9,27.7
2012-02-02 00:26:00,0.0,1.9052,0.0009,400.72,0.22,208.9,36.6,138.09,28.54,24.60,36.32,0.04,-272.74,-272.74,-50,548,-904,23.1,4.1,-21.0,23.1,4.2,-20.5,5.73,2.25,-24.9,27.8
2012-02-02 00:27:00,0.0,1.9049,0.0009,400.73,0.21,217.0,30.5,138.08,28.57,24.61,36.32,0.04,-272.74,-272.74,-51,548,-904,23.1,4.1,-20.9,23.1,4.3,-20.5,5.73,2.27,-24.7,27.8
2012-02-02 00:28:00,0.0,1.9052,0.0010,400.84,0.20,218.6,36.0,138.08,28.59,24.61,36.31,0.04,-272.74,-272.74,-50,548,-904,23.2,4.1,-20.8,23.1,4.3,-20.4,5.73,2.41,-24.7,27.3
2012-02-02 00:29:00,0.0,1.9054,0.0009,400.82,0.22,217.7,33.4,138.09,28.61,24.61,36.32,0.04,-272.74,-272.74,-50,549,-904,23.2,4.1,-20.8,23.2,4.3,-20.4,5.73,2.21,-24.7,26.9
2012-02-02 00:30:00,0.0,1.9056,0.0009,400.85,0.23,214.9,32.0,138.09,28.62,24.61,36.32,0.04,-272.74,-272.74,-50,549,-904,23.2,4.1,-20.8,23.1,4.3,-20.4,5.73,2.42,-24.8,26.7
2012-02-02 00:31:00,0.0,1.9052,0.0010,400.87,0.24,202.2,28.9,138.10,28.63,24.61,36.32,0.04,-272.74,-272.74,-51,549,-904,23.2,4.1,-20.8,23.1,4.3,-20.3,5.73,2.26,-24.9,26.5
2012-02-02 00:32:00,0.0,1.9051,0.0009,400.77,0.15,193.9,33.2,138.10,28.63,24.61,36.32,0.04,-272.74,-272.74,-51,549,-904,23.2,4.2,-20.7,23.1,4.3,-20.3,5.73,2.26,-25.0,26.3
2012-02-02 00:33:00,0.0,1.9053,0.0008,400.82,0.24,178.8,38.0,138.11,28.63,24.61,36.31,0.04,-272.74,-272.74,-50,549,-904,23.1,4.2,-20.6,23.1,4.4,-20.2,5.73,2.42,-25.1,26.3
2012-02-02 00:34:00,0.0,1.9052,0.0010,400.76,0.22,168.3,35.7,138.11,28.62,24.61,36.31,0.04,-272.74,-272.74,-50,549,-904,23.1,4.2,-20.5,23.0,4.4,-20.2,5.73,2.31,-25.2,26.1
2012-02-02 00:35:00,0.0,1.9052,0.0011,400.74,0.20,164.9,34.9,138.12,28.61,24.61,36.31,0.04,-272.74,-272.74,-51,549,-904,23.1,4.2,-20.6,23.0,4.4,-20.2,5.73,2.21,-25.3,26.1
2012-02-02 00:36:00,0.0,1.9053,0.0009,400.69,0.20,159.6,32.0,138.12,28.60,24.61,36.32,0.04,-272.74,-272.74,-51,549,-904,23.1,4.2,-20.7,23.0,4.4,-20.3,5.73,2.35,-25.3,26.0
2012-02-02 00:37:00,0.0,1.9053,0.0010,400.71,0.17,149.3,30.9,138.12,28.59,24.61,36.32,0.04,-272.73,-272.74,-51,549,-904,23.1,4.2,-20.7,22.9,4.3,-20.4,5.73,2.40,-25.4,25.8
2012-02-02 00:38:00,0.0,1.9049,0.0009,400.69,0.21,134.8,30.3,138.13,28.58,24.61,36.32,0.04,-272.74,-272.74,-51,549,-904,23.0,4.2,-20.8,22.9,4.3,-20.4,5.73,2.27,-25.5,25.7
2012-02-02 00:39:00,0.0,1.9049,0.0010,400.79,0.22,123.1,32.0,138.13,28.56,24.61,36.31,0.04,-272.74,-272.74,-51,549,-904,23.0,4.2,-20.8,22.9,4.3,-20.4,5.73,2.22,-25.6,25.7
2012-02-02 00:40:00,1.0,1.8857,0.0132,385.88,10.34,122.3,37.1,138.13,28.55,24.61,36.32,0.04,-272.74,-272.73,-51,492,-904,22.9,4.2,-20.8,22.9,4.3,-20.5,5.73,2.35,-25.6,25.6
2012-02-02 00:41:00,1.0,1.8705,0.0010,374.30,0.22,122.5,33.6,138.14,28.53,24.61,36.32,0.04,-272.74,-272.74,-51,491,-904,22.9,4.1,-20.9,22.8,4.3,-20.6,5.73,2.40,-25.7,25.5
2012-02-02 00:42:00,1.0,1.8700,0.0011,374.28,0.21,124.2,31.8,138.14,28.51,24.60,36.32,0.04,-272.74,-272.74,-51,491,-904,22.9,4.1,-20.9,22.8,4.3,-20.6,5.73,2.29,-25.7,25.5
2012-02-02 00:43:00,1.0,1.8693,0.0010,374.19,0.20,109.4,31.8,138.14,28.49,24.61,36.33,0.04,-272.75,-272.73,-51,491,-904,22.9,4.1,-20.9,22.8,4.3,-20.6,5.73,2.22,-25.8,25.4
2012-02-02 00:44:00,1.0,1.8690,0.0011,374.24,0.21,116.5,33.2,138.14,28.46,24.60,36.32,0.04,-272.74,-272.74,-51,492,-903,22.9,4.2,-20.8,22.7,4.3,-20.5,5.73,2.29,-25.8,25.3
2012-02-02 00:45:00,0.0,1.8870,0.0129,389.17,10.09,94.4,36.3,138.14,28.44,24.61,36.32,0.04,-272.74,-272.74,-49,549,-903,22.8,4.2,-20.7,22.7,4.4,-20.5,5.73,2.36,-25.9,25.3
2012-02-02 00:46:00,0.0,1.9010,0.0011,400.52,0.21,80.2,39.0,138.14,28.43,24.60,36.31,0.04,-272.74,-272.74,-51,549,-903,22.8,4.2,-20.8,22.7,4.4,-20.5,5.73,2.36,-25.9,25.5
2012-02-02 00:47:00,0.0,1.9013,0.0011,400.56,0.22,83.1,29.5,138.14,28.41,24.60,36.31,0.04,-272.74,-272.74,-51,549,-903,22.8,4.2,-20.8,22.7,4.4,-20.5,5.73,2.19,-25.9,26.1
2012-02-02 00:48:00,0.0,1.9026,0.0011,400.60,0.20,98.5,33.3,138.13,28.40,24.60,36.31,0.04,-272.73,-272.74,-51,549,-903,22.8,4.1,-21.0,22.7,4.3,-20.7,5.73,2.42,-25.7,26.5
2012-02-02 00:49:00,0.0,1.9037,0.0009,400.53,0.19,115.0,30.7,138.13,28.40,24.60,36.31,0.04,-272.74,-272.74,-51,548,-903,22.9,4.0,-21.2,22.8,4.2,-20.9,5.73,2.22,-25.6,26.8
2012-02-02 00:50:00,0.0,1.9042,0.0009,400.43,0.21,132.2,36.2,138.12,28.41,24.60,36.32,0.04,-272.74,-272.74,-50,548,-903,22.9,4.0,-21.3,22.8,4.1,-21.0,5.73,2.33,-25.4,27.0
2012-02-02 00:51:00,0.0,1.9046,0.0010,400.55,0.26,145.9,33.3,138.11,28.42,24.60,36.31,0.04,-272.74,-272.74,-51,548,-903,22.9,4.0,-21.3,22.9,4.1,-20.9,5.73,2.37,-25.3,27.1
2012-02-02 00:52:00,0.0,1.9046,0.0010,400.48,0.20,169.4,38.5,138.11,28.44,24.61,36.32,0.04,-272.74,-272.74,-51,549,-903,23.0,4.0,-21.3,22.9,4.2,-20.8,5.73,2.24,-25.2,27.3
2012-02-02 00:53:00,0.0,1.9044,0.0008,400.65,0.19,184.4,35.5,138.10,28.46,24.61,36.31,0.04,-272.74,-272.74,-50,549,-903,23.0,4.0,-21.2,23.0,4.1,-20.9,5.73,2.29,-25.1,27.4
2012-02-02 00:54:00,0.0,1.9047,0.0009,400.58,0.18,188.9,32.9,138.09,28.49,24.61,36.32,0.04,-272.73,-272.73,-50,549,-903,23.0,4.0,-21.3,23.0,4.1,-20.9,5.73,2.38,-25.0,27.6
2012-02-02 00:55:00,0.0,1.9052,0.0009,400.77,0.18,200.1,33.4,138.09,28.51,24.60,36.32,0.04,-272.74,-272.74,-51,548,-903,23.1,3.9,-21.4,23.1,4.1,-21.0,5.73,2.31,-24.9,27.7
2012-02-02 00:56:00,0.0,1.9057,0.0011,400.82,0.21,209.4,35.0,138.09,28.54,24.60,36.31,0.04,-272.74,-272.74,-49,548,-903,23.1,3.9,-21.6,23.1,4.0,-21.2,5.73,2.22,-24.8,27.5
2012-02-02 00:57:00,0.0,1.9058,0.0011,400.78,0.17,213.3,38.9,138.09,28.56,24.61,36.32,0.04,-272.74,-272.73,-51,549,-904,23.1,3.8,-21.7,23.1,4.0,-21.3,5.73,2.42,-24.8,27.0
2012-02-02 00:58:00,0.0,1.9056,0.0009,400.87,0.20,204.6,32.2,138.09,28.58,24.61,36.32,0.04,-272.74,-272.74,-50,550,-904,23.1,3.8,-21.8,23.1,3.9,-21.4,5.73,2.21,-24.9,26.6
2012-02-02 00:59:00,0.0,1.9056,0.0008,400.86,0.28,193.7,38.4,138.10,28.59,24.61,36.32,0.04,-272.74,-272.74,-51,550,-904,23.1,3.8,-21.9,23.1,3.9,-21.4,5.73,2.35,-25.0,26.4
2012-02-02 01:00:00,0.0,1.9059,0.0010,400.69,0.23,174.1,29.4,138.11,28.59,24.61,36.33,0.04,-272.74,-272.74,-51,550,-904,23.1,3.8,-21.8,23.0,3.9,-21.4,5.73,2.40,-25.1,26.2
2012-02-02 01:01:00,0.0,1.9060,0.0011,400.77,0.16,166.1,35.8,138.11,28.59,24.61,36.32,0.04,-272.74,-272.73,-51,550,-904,23.1,3.8,-21.7,23.0,4.0,-21.3,5.73,2.27,-25.3,26.1
2012-02-02 01:02:00,0.0,1.9058,0.0009,400.73,0.20,153.2,32.6,138.12,28.58,24.61,36.32,0.04,-272.74,-272.74,-50,550,-904,23.1,3.9,-21.6,23.0,4.0,-21.2,5.73,2.23,-25.4,26.0
2012-02-02 01:03:00,0.0,1.9062,0.0010,400.74,0.21,135.5,31.5,138.12,28.58,24.61,36.32,0.04,-272.74,-272.73,-50,550,-904,23.0,3.9,-21.5,22.9,4.0,-21.2,5.73,2.33,-25.5,25.8
2012-02-02 01:04:00,0.0,1.9059,0.0009,400.68,0.22,137.4,36.9,138.13,28.56,24.61,36.32,0.04,-272.74,-272.73,-50,550,-904,23.0,3.9,-21.5,22.9,4.1,-21.2,5.73,2.40,-25.6,25.6
2012-02-02 01:05:00,0.0,1.9053,0.0010,400.83,0.22,113.0,32.2,138.13,28.55,24.61,36.31,0.04,-272.74,-272.74,-51,550,-904,22.9,3.9,-21.5,22.8,4.1,-21.2,5.73,2.34,-25.7,25.6
2012-02-02 01:06:00,0.0,1.9054,0.0011,400.81,0.18,97.8,31.3,138.13,28.53,24.60,36.31,0.04,-272.74,-272.74,-51,550,-904,22.9,4.0,-21.4,22.8,4.1,-21.1,5.73,2.26,-25.8,25.5
2012-02-02 01:07:00,0.0,1.9043,0.0012,400.74,0.21,99.9,33.6,138.14,28.51,24.60,36.32,0.04,-272.74,-272.74,-51,549,-904,22.9,4.0,-21.5,22.8,4.1,-21.2,5.73,2.25,-25.9,25.5
2012-02-02 01:08:00,0.0,1.9033,0.0009,400.72,0.20,88.1,32.9,138.14,28.49,24.60,36.31,0.04,-272.74,-272.74,-51,549,-904,22.9,4.0,-21.4,22.7,4.1,-21.1,5.73,2.30,-25.9,25.4
2012-02-02 01:09:00,0.0,1.9026,0.0010,400.74,0.21,85.3,31.3,138.14,28.47,24.61,36.31,0.04,-272.74,-272.74,-49,551,-903,22.8,4.0,-21.4,22.7,4.1,-21.1,5.73,2.37,-26.0,25.3
2012-02-02 01:10:00,0.0,1.9021,0.0010,400.70,0.22,72.8,35.4,138.15,28.44,24.60,36.31,0.04,-272.74,-272.73,-51,549,-904,22.7,4.0,-21.4,22.7,4.1,-21.1,5.73,2.38,-26.0,25.2
2012-02-02 01:11:00,0.0,1.9013,0.0008,400.63,0.27,71.4,32.0,138.15,28.42,24.60,36.31,0.04,-272.74,-272.74,-51,548,-904,22.7,4.0,-21.5,22.6,4.1,-21.2,5.73,2.33,-26.1,25.2
2012-02-02 01:12:00,0.0,1.9007,0.0010,400.70,0.22,67.5,35.9,138.15,28.40,24.60,36.31,0.04,-272.74,-272.74,-50,548,-901,22.7,4.0,-21.5,22.5,4.1,-21.2,5.73,2.27,-26.2,25.2
2012-02-02 01:13:00,0.0,1.9005,0.0010,400.65,0.20,60.7,37.2,138.15,28.38,24.60,36.31,0.04,-272.74,-272.74,-51,548,-904,22.7,4.0,-21.6,22.5,4.1,-21.3,5.73,2.23,-26.2,25.6
2012-02-02 01:14:00,0.0,1.9011,0.0011,400.58,0.21,74.1,35.8,138.14,28.36,24.60,36.31,0.04,-272.74,-272.73,-51,548,-904,22.7,3.9,-21.6,22.6,4.1,-21.3,5.73,2.42,-26.1,26.1
2012-02-02 01:15:00,0.0,1.9018,0.0010,400.60,0.23,85.3,34.4,138.13,28.36,24.60,36.31,0.04,-272.74,-272.74,-50,548,-904,22.7,3.9,-21.6,22.6,4.1,-21.3,5.73,2.22,-25.9,26.4
2012-02-02 01:16:00,0.0,1.9029,0.0009,400.69,0.23,104.2,33.7,138.13,28.36,24.61,36.31,0.04,-272.74,-272.74,-51,548,-903,22.7,3.9,-21.7,22.6,4.1,-21.3,5.73,2.41,-25.8,26.7
2012-02-02 01:17:00,0.0,1.9042,0.0010,400.56,0.21,111.6,30.8,138.12,28.37,24.60,36.32,0.04,-272.74,-272.74,-50,548,-904,22.7,3.9,-21.7,22.7,4.0,-21.4,5.73,2.22,-25.7,26.8
2012-02-02 01:18:00,0.0,1.9053,0.0010,400.57,0.18,129.0,33.2,138.11,28.38,24.60,36.31,0.04,-272.74,-272.73,-51,548,-904,22.7,3.9,-21.7,22.7,4.0,-21.4,5.73,2.34,-25.6,27.0
2012-02-02 01:19:00,0.0,1.9057,0.0009,400.57,0.16,154.5,29.9,138.11,28.40,24.60,36.31,0.04,-272.74,-272.74,-50,548,-904,22.8,3.9,-21.7,22.7,4.0,-21.3,5.73,2.37,-25.5,27.1
2012-02-02 01:20:00,0.0,1.9058,0.0009,400.75,0.24,165.8,37.3,138.10,28.42,24.60,36.31,0.04,-272.74,-272.74,-50,548,-904,22.8,3.9,-21.7,22.8,4.0,-21.4,5.73,2.23,-25.4,27.3
2012-02-02 01:21:00,0.0,1.9055,0.0009,400.80,0.25,173.5,32.3,138.10,28.45,24.60,36.31,0.04,-272.73,-272.73,-50,548,-904,22.9,3.9,-21.7,22.8,4.0,-21.3,5.73,2.34,-25.3,27.4
2012-02-02 01:22:00,0.0,1.9058,0.0009,400.83,0.18,185.8,33.0,138.09,28.47,24.60,36.32,0.04,-272.74,-272.74,-50,548,-904,22.9,3.9,-21.7,22.9,4.0,-21.3,5.73,2.38,-25.2,27.5
2012-02-02 01:23:00,0.0,1.9058,0.0010,400.89,0.23,192.1,37.5,138.09,28.50,24.60,36.31,0.04,-272.74,-272.74,-50,547,-904,22.9,3.9,-21.6,22.9,4.0,-21.2,5.73,2.22,-25.1,27.2
2012-02-02 01:24:00,0.0,1.9057,0.0008,400.91,0.22,199.9,33.2,138.09,28.52,24.61,36.32,0.04,-272.74,-272.74,-49,549,-904,22.9,3.9,-21.6,22.9,4.0,-21.2,5.73,2.41,-25.1,26.9
2012-02-02 01:25:00,0.0,1.9062,0.0007,400.85,0.19,188.5,30.2,138.10,28.53,24.61,36.32,0.04,-272.74,-272.73,-50,549,-904,22.9,3.9,-21.6,22.9,4.1,-21.1,5.73,2.21,-25.1,26.6
2012-02-02 01:26:00,0.0,1.9064,0.0009,400.93,0.22,184.5,35.4,138.10,28.54,24.61,36.31,0.04,-272.73,-272.74,-50,549,-904,22.9,3.9,-21.5,22.9,4.1,-21.1,5.73,2.36,-25.2,26.4
2012-02-02 01:27:00,0.0,1.9068,0.0009,400.91,0.23,175.4,29.9,138.11,28.54,24.61,36.32,0.04,-272.74,-272.73,-49,549,-904,22.9,3.9,-21.5,22.9,4.1,-21.2,5.73,2.41,-25.3,26.1
2012-02-02 01:28:00,0.0,1.9070,0.0011,400.90,0.22,156.2,34.9,138.11,28.54,24.61,36.31,0.04,-272.74,-272.74,-49,549,-903,22.9,3.9,-21.5,22.8,4.1,-21.2,5.73,2.29,-25.4,26.0
2012-02-02 01:29:00,0.0,1.9072,0.0008,400.94,0.22,153.5,34.5,138.12,28.53,24.61,36.31,0.04,-272.74,-272.74,-50,549,-906,22.9,3.9,-21.5,22.8,4.1,-21.1,5.73,2.23,-25.5,25.9
2012-02-02 01:30:00,0.0,1.9069,0.0010,400.96,0.24,142.8,33.3,138.12,28.52,24.61,36.31,0.04,-272.74,-272.74,-50,549,-905,22.8,3.9,-21.5,22.8,4.1,-21.2,5.73,2.32,-25.6,25.8
2012-02-02 01:31:00,0.0,1.9066,0.0012,400.94,0.24,123.8,35.4,138.13,28.51,24.60,36.31,0.04,-272.74,-272.74,-50,549,-905,22.8,3.9,-21.5,22.7,4.1,-21.2,5.73,2.40,-25.7,25.6
2012-02-02 01:32:00,0.0,1.9060,0.0008,401.00,0.25,122.4,30.4,138.13,28.49,24.61,36.31,0.04,-272.73,-272.74,-50,549,-905,22.8,4.0,-21.5,22.7,4.1,-21.2,5.73,2.37,-25.7,25.6
2012-02-02 01:33:00,0.0,1.9054,0.0009,400.94,0.23,108.9,38.8,138.13,28.48,24.61,36.31,0.04,-272.74,-272.74,-50,549,-905,22.7,4.0,-21.5,22.7,4.1,-21.2,5.73,2.28,-25.8,25.5
2012-02-02 01:34:00,0.0,1.9052,0.0009,400.96,0.20,93.8,37.6,138.14,28.46,24.60,36.30,0.04,-272.73,-272.74,-50,549,-905,22.7,4.0,-21.5,22.6,4.1,-21.2,5.73,2.24,-25.8,25.5
2012-02-02 01:35:00,0.0,1.9042,0.0011,400.89,0.18,91.1,29.0,138.14,28.44,24.60,36.31,0.04,-272.74,-272.73,-50,548,-905,22.7,4.0,-21.5,22.6,4.1,-21.2,5.73,2.30,-25.9,25.4
2012-02-02 01:36:00,0.0,1.9038,0.0010,400.75,0.24,81.3,35.3,138.14,28.42,24.60,36.31,0.04,-272.74,-272.74,-51,549,-905,22.7,4.0,-21.6,22.6,4.1,-21.2,5.73,2.38,-26.0,25.4
2012-02-02 01:37:00,0.0,1.9030,0.0010,400.84,0.18,82.7,37.8,138.14,28.40,24.60,36.30,0.04,-272.74,-272.74,-49,549,-904,22.7,3.9,-21.6,22.5,4.1,-21.3,5.73,2.39,-26.0,25.3
2012-02-02 01:38:00,0.0,1.9022,0.0010,400.90,0.17,79.2,38.6,138.15,28.38,24.61,36.30,0.04,-272.74,-272.73,-50,548,-905,22.6,3.9,-21.7,22.5,4.1,-21.4,5.73,2.32,-26.1,25.3
2012-02-02 01:39:00,0.0,1.9019,0.0012,400.85,0.21,75.1,32.8,138.15,28.36,24.61,36.30,0.04,-272.74,-272.74,-50,548,-905,22.6,3.9,-21.7,22.5,4.0,-21.5,5.73,2.23,-26.1,25.5
2012-02-02 01:40:00,0.0,1.9028,0.0011,400.85,0.23,76.7,34.6,138.14,28.35,24.60,36.30,0.04,-272.74,-272.74,-50,548,-905,22.6,3.9,-21.8,22.5,4.0,-21.5,5.73,2.33,-26.0,26.1
2012-02-02 01:41:00,0.0,1.9038,0.0009,400.78,0.22,88.2,33.0,138.13,28.34,24.60,36.31,0.04,-272.74,-272.74,-50,548,-905,22.6,3.9,-21.8,22.5,4.0,-21.4,5.73,2.33,-25.9,26.4
2012-02-02 01:42:00,0.0,1.9047,0.0009,400.87,0.19,88.3,32.8,138.13,28.34,24.60,36.31,0.04,-272.73,-272.74,-50,548,-905,22.7,3.9,-21.8,22.6,4.0,-21.4,5.73,2.35,-25.7,26.7
2012-02-02 01:43:00,0.0,1.9054,0.0009,400.91,0.24,125.9,38.3,138.12,28.35,24.61,36.30,0.04,-272.74,-272.74,-50,548,-905,22.7,3.9,-21.8,22.6,4.0,-21.5,5.73,2.23,-25.6,26.9
2012-02-02 01:44:00,0.0,1.9066,0.0011,400.83,0.19,135.2,36.5,138.11,28.37,24.60,36.31,0.04,-272.74,-272.74,-50,548,-905,22.7,3.9,-21.8,22.7,4.0,-21.5,5.73,2.40,-25.5,27.1
2012-02-02 01:45:00,0.0,1.9074,0.0009,400.84,0.20,155.7,37.6,138.11,28.38,24.60,36.31,0.04,-272.74,-272.74,-50,548,-905,22.7,3.8,-21.9,22.7,4.0,-21.6,5.73,2.30,-25.4,27.2
2012-02-02 01:46:00,0.0,1.9074,0.0009,400.90,0.18,169.8,34.2,138.10,28.40,24.60,36.31,0.04,-272.74,-272.74,-50,548,-905,22.8,3.8,-22.0,22.7,3.9,-21.6,5.73,2.24,-25.3,27.3
2012-02-02 01:47:00,0.0,1.9075,0.0008,400.98,0.21,183.5,33.0,138.09,28.43,24.60,36.31,0.04,-272.74,-272.74,-50,548,-905,22.8,3.8,-22.1,22.8,3.9,-21.7,5.73,2.37,-25.2,27.5
2012-02-02 01:48:00,0.0,1.9073,0.0009,401.05,0.18,192.7,27.7,138.09,28.45,24.60,36.31,0.04,-272.73,-272.74,-50,547,-903,22.9,3.7,-22.2,22.8,3.9,-21.8,5.73,2.36,-25.1,27.6
2012-02-02 01:49:00,0.0,1.9074,0.0009,401.03,0.20,196.5,33.9,138.09,28.48,24.60,36.32,0.04,-272.74,-272.74,-50,548,-905,22.9,3.7,-22.3,22.9,3.8,-21.9,5.73,2.24,-25.0,27.4
2012-02-02 01:50:00,0.0,1.9076,0.0008,401.05,0.20,204.7,33.6,138.09,28.51,24.60,36.32,0.04,-272.74,-272.73,-50,548,-905,22.9,3.6,-22.4,22.9,3.8,-22.0,5.73,2.39,-25.0,26.9
2012-02-02 01:51:00,0.0,1.9076,0.0009,401.14,0.23,205.2,36.0,138.09,28.52,24.61,36.31,0.04,-272.73,-272.74,-50,548,-905,22.9,3.6,-22.4,22.9,3.8,-22.0,5.73,2.22,-25.0,26.6
2012-02-02 01:52:00,0.0,1.9076,0.0010,401.08,0.21,195.7,32.5,138.10,28.53,24.61,36.32,0.04,-272.74,-272.75,-50,550,-907,22.9,3.6,-22.5,22.9,3.8,-22.1,5.73,2.41,-25.1,26.3
2012-02-02 01:53:00,0.0,1.9078,0.0010,401.13,0.18,174.1,29.1,138.11,28.53,24.61,36.31,0.04,-272.74,-272.74,-50,549,-904,22.9,3.6,-22.6,22.8,3.7,-22.2,5.73,2.35,-25.3,26.1
2012-02-02 01:54:00,0.0,1.9084,0.0009,401.13,0.20,166.6,32.9,138.11,28.53,24.61,36.31,0.04,-272.73,-272.74,-50,549,-905,22.9,3.6,-22.6,22.8,3.7,-22.2,5.73,2.24,-25.4,25.9
2012-02-02 01:55:00,0.0,1.9085,0.0009,401.07,0.19,155.0,36.3,138.12,28.53,24.60,36.32,0.04,-272.74,-272.74,-50,549,-906,22.9,3.6,-22.6,22.8,3.7,-22.2,5.73,2.28,-25.5,25.7
2012-02-02 01:56:00,0.0,1.9083,0.0008,401.08,0.21,143.9,35.4,138.12,28.52,24.61,36.31,0.04,-272.73,-272.74,-50,549,-906,22.9,3.6,-22.5,22.7,3.7,-22.2,5.73,2.38,-25.5,25.7
2012-02-02 01:57:00,0.0,1.9079,0.0008,401.13,0.17,119.0,35.6,138.12,28.50,24.61,36.31,0.04,-272.74,-272.74,-49,549,-906,22.8,3.6,-22.6,22.7,3.7,-22.2,5.73,2.40,-25.6,25.6
2012-02-02 01:58:00,0.0,1.9070,0.0010,401.15,0.19,117.5,36.6,138.13,28.49,24.61,36.31,0.04,-272.74,-272.74,-51,551,-906,22.8,3.6,-22.6,22.7,3.7,-22.3,5.73,2.32,-25.7,25.5
2012-02-02 01:59:00,0.0,1.9068,0.0008,401.11,0.24,99.2,37.2,138.13,28.47,24.61,36.31,0.04,-272.74,-272.74,-50,549,-905,22.7,3.6,-22.6,22.7,3.7,-22.3,5.73,2.25,-25.8,25.4
2012-02-02 02:00:00,0.0,1.9062,0.0009,401.16,0.21,100.7,33.0,138.14,28.45,24.60,36.31,0.04,-272.74,-272.74,-50,548,-905,22.7,3.6,-22.6,22.6,3.7,-22.3,5.73,2.26,-25.9,25.4
2012-02-02 02:01:00,0.0,1.9055,0.0010,401.09,0.25,93.4,34.3,138.14,28.43,24.61,36.31,0.04,-272.74,-272.73,-50,548,-905,22.7,3.6,-22.6,22.6,3.7,-22.3,5.73,2.33,-25.9,25.4
2012-02-02 02:02:00,0.0,1.9048,0.0012,401.08,0.19,79.6,33.9,138.14,28.41,24.60,36.30,0.04,-272.73,-272.74,-50,548,-905,22.7,3.6,-22.6,22.5,3.8,-22.3,5.73,2.39,-26.0,25.3
2012-02-02 02:03:00,0.0,1.9038,0.0008,400.97,0.23,84.3,31.2,138.14,28.39,24.60,36.31,0.04,-272.74,-272.74,-50,548,-905,22.6,3.6,-22.6,22.5,3.8,-22.3,5.73,2.38,-26.0,25.2
2012-02-02 02:04:00,0.0,1.9034,0.0010,400.97,0.22,77.0,33.0,138.15,28.37,24.60,36.30,0.04,-272.74,-272.74,-50,548,-905,22.6,3.6,-22.6,22.5,3.8,-22.3,5.73,2.32,-26.1,25.2
2012-02-02 02:05:00,0.0,1.9031,0.0010,400.90,0.22,82.1,28.1,138.15,28.35,24.60,36.31,0.04,-272.74,-272.74,-50,548,-906,22.6,3.6,-22.6,22.5,3.8,-22.3,5.73,2.25,-26.1,25.2
2012-02-02 02:06:00,0.0,1.9031,0.0008,400.85,0.20,78.2,28.8,138.14,28.33,24.61,36.31,0.04,-272.74,-272.74,-50,548,-906,22.6,3.6,-22.6,22.5,3.8,-22.3,5.73,2.28,-26.1,25.8
2012-02-02 02:07:00,0.0,1.9037,0.0009,400.89,0.21,79.9,29.8,138.14,28.32,24.61,36.31,0.04,-272.74,-272.74,-50,548,-905,22.6,3.7,-22.6,22.5,3.8,-22.3,5.73,2.41,-25.9,26.3
2012-02-02 02:08:00,0.0,1.9048,0.0009,400.92,0.20,108.5,36.0,138.13,28.32,24.60,36.31,0.04,-272.74,-272.74,-50,548,-906,22.6,3.6,-22.7,22.5,3.7,-22.3,5.73,2.25,-25.8,26.6
2012-02-02 02:09:00,0.0,1.9061,0.0008,400.95,0.22,107.1,36.8,138.12,28.33,24.60,36.31,0.04,-272.74,-272.74,-50,548,-905,22.6,3.6,-22.7,22.6,3.7,-22.3,5.73,2.33,-25.7,26.8
2012-02-02 02:10:00,0.0,1.9067,0.0009,401.01,0.25,128.7,33.2,138.12,28.34,24.61,36.31,0.04,-272.74,-272.74,-50,547,-905,22.7,3.6,-22.7,22.6,3.7,-22.3,5.73,2.37,-25.6,27.0
2012-02-02 02:11:00,0.0,1.9074,0.0009,400.82,0.26,148.5,39.1,138.11,28.36,24.61,36.32,0.04,-272.73,-272.73,-49,548,-905,22.7,3.6,-22.8,22.6,3.7,-22.4,5.73,2.23,-25.4,27.1
2012-02-02 02:12:00,0.0,1.9080,0.0009,400.84,0.18,170.3,31.0,138.10,28.38,24.60,36.32,0.04,-272.74,-272.73,-50,548,-905,22.7,3.6,-22.7,22.7,3.7,-22.3,5.73,2.35,-25.4,27.2
2012-02-02 02:13:00,0.0,1.9080,0.0010,400.96,0.17,173.0,33.7,138.10,28.40,24.61,36.31,0.04,-272.74,-272.74,-50,548,-905,22.7,3.6,-22.7,22.7,3.7,-22.3,5.73,2.38,-25.3,27.4
2012-02-02 02:14:00,0.0,1.9080,0.0008,401.12,0.21,182.1,33.8,138.09,28.43,24.61,36.31,0.04,-272.74,-272.74,-49,548,-905,22.8,3.5,-22.8,22.8,3.7,-22.4,5.73,2.26,-25.1,27.5
2012-02-02 02:15:00,0.0,1.9083,0.0010,401.15,0.25,203.4,34.7,138.09,28.46,24.60,36.32,0.04,-272.74,-272.73,-49,547,-903,22.9,3.5,-22.8,22.8,3.7,-22.3,5.73,2.29,-25.1,27.5
2012-02-02 02:16:00,0.0,1.9082,0.0008,401.12,0.17,201.2,29.3,138.09,28.49,24.60,36.32,0.04,-272.74,-272.74,-48,547,-906,22.9,3.5,-22.7,22.8,3.7,-22.4,5.73,2.42,-25.0,27.0
2012-02-02 02:17:00,0.0,1.9083,0.0009,401.18,0.19,196.8,34.1,138.09,28.51,24.61,36.32,0.04,-272.74,-272.74,-50,548,-905,22.9,3.5,-22.7,22.8,3.7,-22.3,5.73,2.24,-25.0,26.7